Flag for United Kingdom

Past Weather in Epsom, England, United Kingdom — Yesterday and Last 2 Weeks

Now
67 °F

Mild.


Feels Like: 67 °F
Forecast: 79 / 61 °F
Wind: 9 mph from Northwest

Location: Kenley

Current Time: Jul 16, 2020 at 3:21:45 pm

Latest Report: Jul 16, 2020 at 2:00 pm


Visibility: 15 mi

Pressure: 30.13 "Hg

Humidity: 68%

Dew Point: 56 °F

Location of EpsomLocation

Past Weather in Epsom — Graph

°F

Epsom Temperature Yesterday

Maximum temperature yesterday: 63 °F (at 2:00 pm)
Minimum temperature yesterday: 53 °F (at 5:00 am)
Average temperature yesterday: 59 °F

High & Low Weather Summary for the Past Weeks

 TemperatureHumidityPressure
High75 °F (Jul 13, 4:00 pm)99% (Jul 10, 4:00 am)30.38 "Hg (Jul 10, 4:00 am)
Low46 °F (Jul 12, 5:00 am)32% (Jul 13, 2:00 pm)29.70 "Hg (Jul 1, 2:00 pm)
Average60 °F77%30.04 "Hg
* Reported Jul 1 2:00 pm — Jul 16 2:00 pm, Epsom. Weather by CustomWeather, © 2020

Note: Actual official high and low records may vary slightly from our data, if they occured in-between our weather recording intervals... More about our weather records

Epsom Weather History for the Previous 24 Hours

Scroll right to see more
 ConditionsComfort  
Time TempWeatherWind HumidityBarometerVisibility
2:00 pm
Thu, Jul 16
67 °FMild.9 mph68%30.13 "Hg15 mi
1:00 pm63 °FMild.9 mph73%30.14 "Hg31 mi
12:00 pm62 °FCool.10 mph76%30.14 "Hg28 mi
11:00 am61 °FCool.10 mph78%30.14 "Hg31 mi
10:00 am61 °FCool.10 mph76%30.11 "Hg25 mi
9:00 am60 °FCool.9 mph84%30.11 "Hg31 mi
7:00 am58 °FCool.9 mph87%30.09 "Hg25 mi
6:00 am58 °FCool.7 mph87%30.08 "Hg31 mi
5:00 am58 °FCool.8 mph88%30.07 "Hg31 mi
4:00 am58 °FCool.5 mph89%30.06 "Hg31 mi
3:00 am58 °FCool.7 mph89%30.06 "Hg31 mi
2:00 am58 °FCool.5 mph89%30.06 "Hg31 mi
1:00 am58 °FCool.5 mph88%30.06 "Hg31 mi
12:00 am58 °FCool.6 mph92%30.06 "Hg28 mi
11:00 pm
Wed, Jul 15
58 °FCool.5 mph90%30.05 "Hg31 mi
10:00 pm59 °FCool.3 mph86%30.04 "Hg31 mi
9:00 pm59 °FCool.6 mph86%30.03 "Hg31 mi
8:00 pm60 °FCool.7 mph79%30.02 "Hg31 mi
7:00 pm62 °FCool.7 mph73%30.01 "Hg31 mi
6:00 pm62 °FMild.7 mph72%30.00 "Hg31 mi
5:00 pm63 °FMild.10 mph68%30.00 "Hg31 mi
4:00 pm63 °FMild.8 mph73%30.00 "Hg28 mi
3:00 pm63 °FMild.10 mph68%30.00 "Hg31 mi
Weather by CustomWeather, © 2020

See weather overview